SCP
0 0 0 0 0 0 0 0 0 0 0 0 0 0 0 0 0 0 0 1 1 1 0 0 0 0 0 0 0 0 0 0 0 0 0 0 0 0 0 0 0 0 0
0 0 0 0 0 0 0 0 0 0 0 0 0 0 0 0 0 0 0 0 1 1 0 0 0 0 0 0 0 0 0 0 0 0 0 0 0 0 0 0 0 0 0
0 0 0 0 0 0 0 0 0 0 0 0 0 0 0 0 0 0 0 0 0 0 0 0 0 0 0 0 0 0 0 0 0 0 0 0 0 0 0 0 0 0 0
0 0 0 0 0 0 0 0 0 0 0 0 0 0 0 0 0 0 0 0 0 0 0 0 0 0 0 0 0 0 0 0 0 0 0 0 0 0 0 0 0 0 0
0 0 0 0 0 0 0 0 0 0 0 0 0 0 0 0 0 0 0 0 0 0 0 0 1 1 1 0 0 0 0 0 0 0 0 0 0 0 0 0 0 0 0
0 0 0 0 0 0 0 0 0 0 0 0 0 0 0 0 0 0 0 0 0 0 0 0 0 0 0 0 0 0 0 0 0 0 0 0 0 0 0 0 0 0 0
0 0 0 0 0 0 0 0 0 0 0 0 0 0 0 0 0 0 0 0 0 0 0 0 0 0 0 0 0 0 0 0 0 0 0 0 0 0 0 0 0 0 0
0 0 0 0 0 0 0 0 0 0 0 0 0 0 0 0 0 0 0 0 0 0 0 0 0 0 0 0 0 0 0 0 0 0 0 0 0 0 0 0 0 0 0
0 0 0 0 0 0 0 0 0 0 0 0 0 0 0 0 0 0 0 0 0 0 0 0 0 0 0 0 0 0 0 0 0 0 0 0 0 0 0 0 0 0 0
0 0 0 0 0 0 0 0 0 0 0 0 0 0 0 0 0 0 0 0 0 0 0 0 0 0 0 0 0 0 0 0 0 0 0 0 0 1 1 0 0 0 0
0 0 0 0 0 0 0 0 0 0 0 0 0 0 0 0 0 0 0 0 0 0 0 0 0 0 0 0 0 0 0 0 0 0 0 0 0 1 1 1 1 1 1
0 0 0 0 0 0 0 0 0 0 0 0 0 0 0 0 0 0 0 0 0 0 0 0 0 0 0 0 0 0 0 0 0 0 0 0 0 0 0 1 1 1 1
0 0 0 0 0 0 0 0 0 0 0 0 0 0 0 0 0 0 0 0 0 0 0 0 0 0 0 0 0 0 0 0 0 0 0 0 0 0 0 0 1 1 1
0 0 0 0 0 0 0 0 0 0 0 0 0 0 0 0 0 0 0 0 0 0 0 0 0 0 0 0 0 0 0 0 0 0 0 0 0 0 0 0 0 0 0
0 0 0 0 0 0 0 0 0 0 0 0 0 0 0 0 0 0 0 0 0 0 0 0 0 0 0 0 0 0 0 0 0 0 0 0 0 0 0 0 0 0 0
0 0 0 0 0 0 0 0 0 0 0 0 0 0 0 0 0 0 0 0 0 0 0 0 0 0 0 0 0 0 0 0 0 0 0 0 0 0 0 0 0 0 0
0 0 0 0 0 0 0 0 0 0 0 0 0 0 0 0 0 0 0 0 0 0 0 0 0 0 0 0 0 0 0 0 0 0 0 0 0 0 0 0 0 0 0
0 0 0 0 0 0 0 0 0 0 0 0 0 0 0 0 0 0 0 0 0 0 0 0 0 0 0 0 0 0 0 0 0 0 0 0 0 0 0 0 0 0 0
0 0 0 0 0 0 0 0 0 0 0 0 0 0 0 0 0 0 0 0 0 0 0 0 0 0 0 0 0 0 0 0 0 0 0 0 0 0 0 0 0 0 0
0 0 0 0 0 0 0 0 0 0 0 0 0 0 0 0 0 0 0 0 0 0 0 0 0 0 0 0 0 0 0 0 0 0 0 0 0 0 0 0 0 0 0
0 0 0 0 0 0 0 0 0 0 0 0 0 0 0 0 0 0 0 0 0 0 0 0 0 0 0 0 0 0 0 0 0 0 0 0 0 0 0 0 0 0 0
0 0 0 0 0 0 0 0 0 0 0 0 0 0 0 0 0 0 0 0 0 0 0 0 0 0 0 0 0 0 0 0 0 0 0 0 0 0 0 0 0 0 0
0 0 0 0 0 0 0 0 0 0 0 0 0 0 0 0 0 0 0 0 0 0 0 0 0 0 0 0 0 0 0 0 0 0 0 0 0 0 0 0 0 0 0
0 0 0 0 0 0 0 0 0 0 0 0 0 0 0 0 0 0 0 0 0 0 0 0 0 0 0 0 0 0 0 0 0 0 0 0 0 0 0 0 0 0 0
0 0 0 0 0 0 0 0 0 0 0 0 0 0 0 0 0 0 0 0 0 0 0 0 0 0 0 0 0 0 0 0 0 0 0 0 0 0 0 0 0 0 0
0 0 0 0 0 0 0 0 0 0 0 0 0 0 0 0 0 0 0 0 0 0 0 0 0 0 0 0 0 0 0 0 0 0 0 0 0 0 0 0 0 0 0
Wind_Speed
2 2 1 1 1 1 1 1 1 1 1 1 1 2 2 2 3 2 1 5 7 7 8 8 8 8 8 9 9 9 9 9 8 8 8 8 8 8 8 8 7 7 6
3 2 2 1 1 1 1 1 1 2 1 1 1 1 1 1 2 2 1 1 4 5 6 8 8 9 9 9 9 9 9 9 9 8 8 7 7 7 7 8 7 7 6
4 3 2 1 1 1 2 2 2 2 2 1 1 1 1 1 1 1 1 0 0 3 5 6 7 8 9 9 10 10 9 9 9 8 8 8 7 7 7 7 7 7 6
4 3 3 2 1 2 2 2 2 2 2 2 1 1 1 1 1 1 0 0 0 0 2 5 6 7 8 9 10 10 10 9 9 9 9 9 8 8 8 7 8 7 7
4 3 3 2 2 2 2 2 2 2 2 1 1 2 2 1 1 0 0 1 1 1 1 2 5 6 8 9 10 10 10 11 10 10 11 10 10 9 9 9 8 8 8
4 4 3 3 3 3 2 2 3 3 2 2 2 3 2 2 2 1 1 0 1 2 2 2 1 3 6 8 8 9 10 11 11 11 12 12 12 11 10 10 10 9 9
5 4 3 3 3 3 3 3 3 3 2 1 2 2 3 3 2 2 1 1 1 1 1 2 2 1 2 4 6 8 10 10 11 11 11 11 12 11 11 11 11 10 11
4 4 4 4 3 3 3 3 2 2 2 2 2 2 2 3 3 2 2 1 1 1 1 1 2 2 2 1 2 6 7 9 10 10 11 11 12 11 11 12 12 11 12
4 4 5 4 4 3 3 2 3 4 3 2 1 3 3 2 1 2 2 1 1 1 1 1 1 2 2 2 2 3 5 6 8 10 10 10 11 10 11 12 12 12 12
3 4 5 5 4 3 3 2 2 2 3 2 1 2 1 2 2 0 2 2 2 1 1 1 1 1 2 2 2 3 4 5 6 7 8 9 9 10 11 11 12 13 13
2 3 4 4 4 3 3 3 3 2 2 3 2 2 2 2 1 2 0 2 2 1 1 1 1 1 1 2 2 3 4 4 4 4 5 6 7 8 10 11 12 12 13
1 2 3 4 4 3 3 3 3 3 2 3 2 2 2 2 2 2 1 1 1 2 2 2 2 2 2 2 3 4 4 4 4 4 4 4 4 5 7 9 10 11 12
2 3 4 4 3 3 3 3 3 3 3 3 3 2 1 1 2 2 2 1 1 2 3 2 2 2 2 2 3 4 5 5 5 5 5 5 5 5 5 6 7 8 9
4 4 5 4 4 4 4 4 3 2 2 2 3 2 1 1 2 2 3 3 1 1 2 3 2 2 2 2 3 5 4 6 7 7 7 7 7 6 6 6 7 7 7
4 5 5 5 5 5 5 4 3 3 3 3 3 2 1 1 1 2 2 2 3 1 2 2 2 2 2 2 3 3 4 6 8 8 9 9 9 9 8 8 8 8 8
4 5 5 6 5 5 5 4 3 3 4 3 2 3 2 2 2 2 2 2 2 3 3 2 2 2 3 3 4 4 5 8 9 10 11 11 11 11 11 11 11 11 11
5 6 6 6 6 6 6 5 5 5 5 4 3 4 4 3 3 2 2 2 3 3 4 3 3 3 3 4 4 3 4 5 6 10 12 13 13 13 13 13 13 13 13
5 6 6 6 6 7 7 7 7 6 6 6 5 5 5 4 4 4 3 4 4 4 4 5 3 3 4 4 5 5 5 5 6 9 12 13 14 14 14 15 14 14 14
4 5 5 7 7 7 7 7 7 7 7 7 6 6 6 5 5 4 4 4 4 4 5 5 5 3 3 3 4 5 5 5 6 7 11 13 14 15 16 16 16 16 15
4 4 5 5 5 6 6 6 6 6 6 6 5 5 5 5 6 5 4 5 4 4 4 5 5 5 4 4 3 4 6 5 6 6 8 9 11 14 15 16 16 16 16
3 3 2 3 3 3 4 6 5 5 5 4 3 3 3 3 4 3 3 3 3 3 3 4 5 5 5 4 4 4 6 7 7 6 6 7 7 7 9 11 14 16 16
2 2 2 2 1 1 2 5 5 3 3 2 2 1 1 2 2 2 1 1 2 3 4 4 5 6 7 6 5 5 6 7 7 3 4 6 5 8 8 8 12 15 16
3 3 3 3 3 3 4 4 4 3 3 3 3 3 3 4 4 3 3 3 3 2 2 3 5 6 6 5 6 7 7 8 9 7 7 11 9 10 9 9 14 16 17
4 4 5 5 5 6 7 8 8 6 5 5 4 4 4 4 5 4 3 3 3 3 3 2 4 5 6 6 6 7 8 9 9 8 7 10 10 11 10 9 13 16 17
6 6 5 6 7 7 9 9 7 5 5 5 4 4 4 3 5 5 3 4 4 4 4 5 7 8 10 11 8 6 6 6 9 7 5 7 9 10 10 11 11 15 17
6 6 7 7 7 7 8 9 7 4 4 3 3 3 5 4 5 4 2 2 4 5 6 7 6 7 7 8 9 6 6 7 7 6 4 5 7 7 8 7 7 8 10
Wind_Direction
150 140 129 121 121 111 121 130 123 113 99 88 126 154 160 154 146 144 160 185 181 181 181 178 180 185 180 177 177 176 174 172 168 165 165 165 165 167 165 159 156 156 154
143 137 131 126 122 123 131 136 127 116 101 104 91 122 141 144 143 142 135 200 196 191 194 192 192 196 193 190 188 185 184 182 178 177 177 176 175 177 175 171 169 168 166
141 138 135 136 137 115 115 104 89 87 97 94 68 51 76 104 126 144 149 113 187 213 206 203 205 206 205 203 200 195 192 191 186 186 186 184 182 184 184 182 182 180 178
139 135 134 138 128 113 112 108 93 87 79 82 76 35 39 44 110 170 168 179 148 207 220 216 218 218 217 215 210 203 199 199 196 195 195 194 193 193 194 193 193 189 188
136 130 126 123 116 104 100 115 86 97 96 84 92 58 30 23 17 6 198 211 214 211 208 239 235 229 228 226 222 214 209 206 206 205 206 205 205 203 202 202 202 200 198
130 121 115 111 111 105 94 93 96 78 83 87 80 62 33 17 29 21 354 328 226 225 213 224 235 248 239 232 227 222 222 219 214 212 213 213 212 211 209 209 209 208 207
131 124 119 110 110 111 118 117 101 87 65 59 82 47 20 23 31 20 9 4 331 271 205 204 204 217 246 239 230 226 227 227 222 219 220 219 218 216 213 215 215 214 214
137 134 130 126 121 113 107 107 115 106 69 47 110 95 37 3 3 14 7 6 347 334 249 220 206 210 223 229 245 243 234 231 229 226 226 225 224 220 217 218 220 220 219
134 130 134 131 130 125 127 122 131 133 129 64 63 133 141 205 303 338 6 18 354 348 333 297 236 221 217 216 239 254 244 234 231 230 228 227 226 223 220 220 221 223 223
130 136 136 133 130 127 130 135 129 132 135 132 85 59 102 144 146 350 339 354 350 344 324 314 304 258 228 223 236 247 253 243 238 236 233 228 228 226 224 225 228 229 227
125 137 136 133 134 133 136 127 118 122 127 139 143 130 101 74 88 138 235 329 344 331 308 291 281 272 246 230 236 245 245 234 232 233 236 237 235 234 231 232 235 236 234
135 148 142 141 142 142 145 139 128 128 122 121 126 135 145 148 157 147 165 244 301 309 315 295 266 258 251 240 246 243 231 221 212 215 227 237 243 244 241 240 241 243 242
180 187 166 160 158 159 153 143 137 137 134 130 136 133 140 145 144 143 139 147 290 314 318 306 285 270 256 242 255 259 245 235 224 220 225 233 242 249 252 253 252 251 252
189 181 176 177 174 166 161 153 146 156 146 145 148 143 139 148 160 161 153 145 109 330 315 298 312 284 277 261 257 260 256 249 242 237 236 238 241 246 253 257 260 260 259
187 181 181 183 183 178 172 163 170 176 163 170 171 170 167 177 174 172 161 157 150 181 272 286 292 297 280 264 259 249 247 254 253 250 249 248 248 249 252 255 258 260 260
190 180 189 192 189 187 181 175 181 186 179 185 183 183 193 194 189 180 173 173 169 172 223 257 259 279 287 283 258 244 249 255 256 254 252 251 251 250 250 250 251 253 254
193 196 197 195 195 194 188 188 198 192 196 202 200 201 214 199 198 196 187 184 188 182 219 259 248 263 268 275 283 266 258 254 257 254 253 251 250 250 249 249 248 248 249
200 202 196 198 203 201 194 197 205 203 204 212 216 214 226 215 216 212 204 209 211 207 219 257 262 255 252 259 268 273 269 259 255 257 254 253 251 250 249 249 248 247 247
205 204 196 203 207 204 201 205 208 209 211 218 218 220 231 223 233 230 224 229 230 225 221 245 268 260 263 262 273 275 272 268 265 261 256 253 251 250 249 248 248 247 246
200 207 208 213 213 209 208 209 211 216 220 224 222 224 231 228 238 240 237 240 240 239 233 245 265 272 270 265 258 279 289 280 277 277 266 261 255 252 250 248 247 246 245
200 200 199 219 216 209 215 208 208 213 216 224 223 222 230 233 240 238 241 247 240 245 252 259 271 280 282 282 277 278 286 294 285 266 268 266 261 260 259 254 250 248 245
156 143 168 180 185 218 204 191 183 186 183 190 195 163 108 44 24 22 347 297 242 243 258 262 271 277 285 288 290 286 290 293 291 270 267 279 269 267 264 259 252 247 247
108 110 112 104 90 60 72 98 123 114 104 96 93 84 72 53 42 25 13 20 14 357 293 263 274 283 294 300 303 296 286 280 277 283 282 282 274 271 268 263 250 246 246
93 92 87 89 86 67 74 85 93 92 81 74 75 82 81 52 31 23 15 13 1 345 320 300 275 282 289 292 284 281 282 281 275 272 264 275 279 275 275 267 256 249 248
86 82 80 81 81 65 67 79 88 90 85 72 63 64 71 60 27 23 22 358 341 332 330 332 315 303 299 298 297 293 287 285 286 284 262 263 277 282 279 272 263 250 248
86 84 77 70 73 65 58 67 76 84 81 68 51 42 42 32 18 19 14 345 328 323 328 329 325 318 312 306 305 287 282 284 288 290 274 270 286 297 288 272 269 272 267